Home   Weather   Quispamsis   Past weeks

Flag for Canada Past Weather in Quispamsis, New Brunswick, Canada — Yesterday and Last 2 Weeks

64 °F

Light rain. Fog.

Feels Like: 64 °F
Forecast: 56 / 65 °F
Wind: 15 mph from Southeast

Location: Saint John

Current Time: Oct 22, 2016 at 10:40:48 AM

Latest Report: Oct 22, 2016 at 10:00 AM

Visibility: 5 mi

Pressure: 29.29 "Hg

Humidity: 100%

Dew Point: 64 °F

Location of QuispamsisLocation

Past Weather in Quispamsis — Graph


Quispamsis Temperature Yesterday

Maximum temperature yesterday: 61 °F (at 3:00 PM)
Minimum temperature yesterday: 52 °F (at 12:00 AM)
Average temperature yesterday: 56 °F

High & Low Weather Summary for the Past Weeks

High75 °F (Oct 7, 3:00 PM)100% (Oct 7, 9:00 PM)30.45 "Hg (Oct 7, 9:00 PM)
Low27 °F (Oct 15, 4:00 AM)33% (Oct 11, 4:00 PM)29.31 "Hg (Oct 22, 9:00 AM)
Average50 °F84%30.09 "Hg
* Reported Oct 7 9:00 AM — Oct 22 9:00 AM, Quispamsis, Weather by CustomWeather, © 2016

Note: Actual official high and low records may vary slightly from our data, if they occured in-between our weather recording intervals... More about our weather records


Quispamsis Weather History for the Previous 24 Hours

Scroll right to see more
Time TempWeatherWind HumidityBarometerVisibility
9:00 AM
Sat, Oct 22
63 °FLight rain. Fog.15 mph100%29.31 "Hg3 mi
8:04 AM61 °FHeavy rain. Fog.17 mph100%29.33 "Hg2 mi
7:00 AM61 °FLight rain. Fog.21 mph100%29.37 "Hg6 mi
6:00 AM61 °FLight rain. Fog.17 mph100%29.41 "Hg4 mi
5:00 AM61 °FLight rain. Fog.16 mph100%29.47 "Hg4 mi
4:00 AM63 °FLight rain. Fog.16 mph100%29.53 "Hg6 mi
3:48 AM63 °FLight rain. Fog.18 mph100%29.55 "Hg6 mi
3:00 AM63 °FLight rain. Fog.18 mph100%29.58 "Hg8 mi
2:00 AM63 °FFog.14 mph100%29.63 "Hg3 mi
1:00 AM61 °FDrizzle. Fog.12 mph100%29.68 "Hg3 mi
12:00 AM61 °FDrizzle. Fog.12 mph100%29.72 "Hg3 mi
11:00 PM
Fri, Oct 21
61 °FLight rain. Mostly cloudy.15 mph100%29.77 "Hg10 mi
10:00 PM61 °FMostly cloudy.13 mph100%29.81 "Hg15 mi
9:00 PM61 °FLow clouds.14 mph100%29.84 "Hg10 mi
8:00 PM61 °FLow clouds.10 mph100%29.86 "Hg15 mi
7:00 PM61 °FLow clouds.15 mph100%29.88 "Hg10 mi
6:00 PM61 °FPartly sunny.15 mph100%29.89 "Hg10 mi
5:00 PM61 °FFog.12 mph100%29.91 "Hg5 mi
4:00 PM61 °FLow clouds.13 mph100%29.93 "Hg10 mi
3:00 PM61 °FLow clouds.14 mph100%29.95 "Hg15 mi
2:00 PM59 °FPartly sunny.14 mph100%29.97 "Hg15 mi
1:00 PM55 °FLight rain. Fog.10 mph100%30.00 "Hg5 mi
12:00 PM54 °FLight rain. Fog.16 mph100%30.01 "Hg5 mi
11:00 AM54 °FDrizzle. Fog.17 mph100%30.03 "Hg5 mi
10:00 AM52 °FLight rain. Fog.17 mph100%30.05 "Hg4 mi
Weather by CustomWeather, © 2016

See weather overviewHow to use our weather pages